Terminal Aerodrome Forecast
Issued by NWS Sterling, VA

Current Version | Previous Version | Graphics & Text | Print | Product List | Glossary On
Versions: 1 2 3 4 5 6 7 8 9 10 11 12 13 14 15 16 17 18 19 20 21 22 23 24
000
FTUS41 KLWX 031135
TAFDCA
TAF
KDCA 031135Z 0312/0412 33004KT P6SM SKC
     FM031400 32006KT P6SM SCT060
     FM032000 33008KT P6SM VCTS BKN060CB
     FM040000 35004KT P6SM BKN060=

USA.gov is the U.S. government's official web portal to all federal, state and local government web resources and services.